sat.trackr.live / text

‹ back to catalog

STARLINK-31011

NORAD 58517 · 2023-191K

PAYLOAD ACTIVE UNKNOWN

§ Identity

Operator
Country
US
Launch date
2023-12-07
Launch site
AFETR
Launch vehicle
Mass (kg)
RCS (m²)

Purposes: comms

External: N2YO · Heavens-Above · Gunter

§ Orbital elements

Epoch: 2026-05-25T01:06:31.785408Z

Period
94.27 min
Inclination
43.0037°
Eccentricity
0.0000949
Mean motion
15.27581182 rev/d
Perigee alt
482.4 km
Apogee alt
483.7 km
Semi-major
6,861.2 km
B*
-5.0109e-6
RAAN
31.8244°
Arg perigee
266.2095°
Mean anomaly
93.8648°
Rev number
13,715

§ Raw data

STARLINK-310111 58517U 23191K   26145.04620122 -.00000400  00000+0 -50109-5 0  99922 58517  43.0037  31.8244 0000949 266.2095  93.8648 15.27581182137154

JSON: /api/v1/satellites/58517 · /tle

For live sub-satellite position, see the globe view (requires WebGL).

§ Visibility from observer

Set your observer location to see the next 7 days of passes ≥ 10°. The values pass through the URL so the page stays shareable.

No JS? Fill the form by hand. The geolocation button needs JavaScript.